QPF
0.00 0.00 0.00 0.00 0.01 0.02 0.02 0.01 0.00 0.00 0.01 0.01 0.01 0.02 0.02 0.03 0.05 0.09 0.11 0.09 0.09 0.12 0.18 0.24 0.20 0.13 0.09 0.09 0.09 0.10 0.09 0.10 0.09 0.12 0.11 0.12 0.15 0.18 0.17 0.16 0.17 0.15 0.13 0.12 0.12 0.12 0.13 0.15 0.18
0.00 0.00 0.00 0.00 0.02 0.02 0.03 0.02 0.01 0.01 0.01 0.02 0.02 0.03 0.02 0.03 0.04 0.08 0.10 0.08 0.08 0.13 0.18 0.26 0.22 0.12 0.08 0.09 0.11 0.12 0.13 0.11 0.09 0.09 0.11 0.19 0.21 0.26 0.24 0.20 0.18 0.13 0.10 0.10 0.12 0.14 0.16 0.16 0.20
0.00 0.00 0.00 0.01 0.02 0.03 0.04 0.03 0.01 0.01 0.02 0.02 0.01 0.02 0.03 0.05 0.05 0.08 0.09 0.07 0.08 0.12 0.16 0.21 0.18 0.12 0.09 0.07 0.08 0.10 0.11 0.10 0.09 0.08 0.13 0.22 0.27 0.32 0.28 0.22 0.16 0.11 0.10 0.11 0.13 0.14 0.17 0.19 0.19
0.00 0.00 0.01 0.01 0.01 0.01 0.01 0.01 0.01 0.02 0.03 0.03 0.02 0.03 0.04 0.06 0.06 0.07 0.06 0.06 0.08 0.11 0.12 0.13 0.15 0.11 0.11 0.09 0.08 0.08 0.10 0.12 0.09 0.08 0.10 0.16 0.23 0.25 0.23 0.21 0.15 0.12 0.11 0.13 0.15 0.20 0.22 0.17 0.16
0.00 0.00 0.01 0.01 0.00 0.01 0.00 0.01 0.00 0.02 0.04 0.02 0.01 0.01 0.04 0.07 0.05 0.04 0.04 0.04 0.05 0.09 0.11 0.10 0.12 0.12 0.11 0.10 0.10 0.10 0.10 0.12 0.09 0.06 0.07 0.11 0.14 0.16 0.14 0.13 0.16 0.16 0.13 0.15 0.23 0.24 0.18 0.13 0.15
0.00 0.00 0.01 0.00 0.00 0.00 0.00 0.00 0.00 0.01 0.01 0.00 0.00 0.00 0.03 0.06 0.04 0.03 0.02 0.03 0.04 0.07 0.10 0.09 0.10 0.13 0.13 0.11 0.10 0.09 0.11 0.13 0.12 0.09 0.09 0.11 0.11 0.10 0.08 0.07 0.10 0.13 0.15 0.20 0.23 0.17 0.11 0.09 0.11
0.00 0.00 0.00 0.00 0.00 0.00 0.00 0.00 0.01 0.01 0.01 0.01 0.00 0.00 0.02 0.04 0.04 0.02 0.02 0.02 0.02 0.04 0.08 0.12 0.10 0.09 0.10 0.11 0.10 0.10 0.14 0.20 0.20 0.14 0.09 0.10 0.09 0.07 0.06 0.06 0.06 0.08 0.14 0.19 0.20 0.14 0.11 0.09 0.10
0.00 0.00 0.00 0.00 0.00 0.00 0.00 0.00 0.00 0.01 0.01 0.00 0.00 0.01 0.03 0.04 0.03 0.02 0.01 0.02 0.02 0.03 0.04 0.06 0.07 0.07 0.07 0.07 0.09 0.11 0.12 0.17 0.21 0.21 0.16 0.11 0.08 0.06 0.05 0.06 0.07 0.08 0.12 0.18 0.19 0.15 0.13 0.11 0.12
0.00 0.00 0.00 0.00 0.00 0.01 0.00 0.01 0.01 0.01 0.01 0.00 0.00 0.01 0.02 0.02 0.01 0.01 0.02 0.02 0.02 0.03 0.03 0.03 0.03 0.04 0.05 0.03 0.03 0.05 0.07 0.08 0.13 0.20 0.20 0.12 0.09 0.08 0.07 0.07 0.07 0.09 0.14 0.18 0.19 0.17 0.16 0.15 0.12
0.00 0.00 0.00 0.00 0.00 0.01 0.01 0.01 0.00 0.01 0.01 0.01 0.01 0.00 0.00 0.01 0.01 0.01 0.02 0.01 0.02 0.02 0.01 0.02 0.03 0.03 0.03 0.02 0.03 0.03 0.04 0.05 0.09 0.16 0.17 0.12 0.08 0.07 0.08 0.08 0.10 0.15 0.17 0.16 0.15 0.14 0.13 0.11 0.07
0.00 0.00 0.00 0.00 0.00 0.00 0.01 0.01 0.01 0.00 0.01 0.00 0.00 0.01 0.01 0.01 0.01 0.02 0.01 0.02 0.02 0.01 0.01 0.01 0.03 0.04 0.04 0.04 0.03 0.02 0.02 0.04 0.05 0.08 0.12 0.09 0.06 0.06 0.06 0.08 0.11 0.12 0.11 0.09 0.09 0.10 0.09 0.06 0.05
0.00 0.00 0.01 0.00 0.00 0.00 0.00 0.00 0.00 0.00 0.00 0.00 0.00 0.00 0.00 0.01 0.01 0.01 0.01 0.01 0.01 0.01 0.01 0.02 0.03 0.04 0.04 0.04 0.02 0.02 0.02 0.02 0.03 0.05 0.07 0.05 0.05 0.07 0.07 0.06 0.05 0.05 0.07 0.08 0.08 0.07 0.06 0.04 0.03
0.00 0.01 0.00 0.00 0.00 0.00 0.00 0.00 0.00 0.01 0.00 0.00 0.00 0.00 0.00 0.00 0.00 0.01 0.01 0.01 0.01 0.01 0.01 0.02 0.03 0.03 0.03 0.02 0.01 0.01 0.01 0.02 0.03 0.05 0.06 0.05 0.06 0.08 0.09 0.08 0.07 0.06 0.08 0.08 0.07 0.05 0.04 0.03 0.02
0.00 0.01 0.00 0.00 0.00 0.00 0.00 0.00 0.00 0.00 0.00 0.00 0.00 0.00 0.00 0.00 0.00 0.01 0.01 0.01 0.01 0.01 0.02 0.02 0.03 0.03 0.02 0.01 0.01 0.01 0.01 0.02 0.03 0.05 0.06 0.06 0.06 0.08 0.10 0.09 0.08 0.07 0.05 0.04 0.04 0.04 0.03 0.02 0.01
0.00 0.00 0.00 0.00 0.00 0.00 0.00 0.00 0.00 0.00 0.00 0.00 0.00 0.00 0.00 0.01 0.01 0.00 0.00 0.00 0.00 0.01 0.02 0.02 0.03 0.02 0.01 0.01 0.01 0.01 0.02 0.03 0.04 0.05 0.06 0.06 0.05 0.06 0.06 0.06 0.06 0.05 0.04 0.04 0.03 0.03 0.02 0.02 0.01
0.00 0.00 0.00 0.00 0.01 0.00 0.00 0.00 0.00 0.00 0.00 0.00 0.00 0.00 0.00 0.00 0.00 0.00 0.00 0.00 0.01 0.02 0.03 0.03 0.03 0.01 0.01 0.01 0.00 0.00 0.01 0.01 0.03 0.03 0.03 0.03 0.04 0.05 0.05 0.05 0.05 0.05 0.05 0.04 0.03 0.02 0.02 0.02 0.01
0.00 0.00 0.00 0.00 0.00 0.00 0.00 0.00 0.00 0.00 0.01 0.00 0.00 0.00 0.00 0.00 0.00 0.00 0.00 0.00 0.01 0.04 0.04 0.05 0.04 0.01 0.01 0.01 0.00 0.00 0.01 0.01 0.02 0.03 0.02 0.02 0.03 0.03 0.03 0.03 0.03 0.04 0.04 0.04 0.03 0.02 0.01 0.01 0.02
0.00 0.00 0.00 0.00 0.01 0.00 0.00 0.00 0.00 0.00 0.01 0.00 0.00 0.00 0.00 0.00 0.00 0.00 0.01 0.00 0.02 0.05 0.05 0.04 0.05 0.03 0.01 0.01 0.01 0.01 0.01 0.02 0.02 0.02 0.02 0.02 0.02 0.03 0.03 0.02 0.03 0.04 0.04 0.05 0.05 0.04 0.03 0.02 0.02
0.00 0.00 0.00 0.00 0.00 0.00 0.00 0.00 0.00 0.01 0.02 0.01 0.00 0.00 0.00 0.00 0.00 0.00 0.00 0.00 0.01 0.04 0.05 0.04 0.05 0.03 0.03 0.02 0.01 0.01 0.02 0.02 0.02 0.02 0.03 0.03 0.01 0.02 0.04 0.03 0.04 0.04 0.04 0.06 0.06 0.05 0.04 0.03 0.03
0.00 0.00 0.00 0.00 0.00 0.00 0.00 0.00 0.00 0.01 0.02 0.01 0.00 0.00 0.00 0.00 0.01 0.01 0.01 0.01 0.01 0.02 0.02 0.02 0.04 0.04 0.03 0.01 0.01 0.01 0.01 0.01 0.01 0.03 0.03 0.02 0.01 0.02 0.03 0.04 0.05 0.05 0.05 0.06 0.07 0.07 0.05 0.05 0.05
0.00 0.00 0.00 0.00 0.00 0.00 0.00 0.00 0.00 0.00 0.01 0.01 0.01 0.01 0.00 0.00 0.00 0.01 0.01 0.01 0.01 0.01 0.01 0.02 0.02 0.03 0.02 0.01 0.01 0.01 0.01 0.01 0.01 0.03 0.02 0.02 0.02 0.03 0.03 0.03 0.04 0.04 0.05 0.06 0.06 0.06 0.05 0.06 0.06
0.00 0.00 0.00 0.00 0.00 0.00 0.01 0.01 0.00 0.00 0.01 0.01 0.01 0.01 0.01 0.01 0.01 0.01 0.00 0.00 0.01 0.01 0.02 0.03 0.03 0.03 0.03 0.02 0.02 0.02 0.01 0.01 0.01 0.02 0.03 0.04 0.04 0.04 0.03 0.04 0.05 0.04 0.04 0.05 0.05 0.04 0.05 0.04 0.05
0.00 0.00 0.00 0.00 0.00 0.00 0.01 0.01 0.00 0.00 0.01 0.00 0.00 0.01 0.01 0.01 0.00 0.01 0.01 0.01 0.01 0.01 0.01 0.02 0.03 0.02 0.02 0.02 0.02 0.02 0.01 0.01 0.01 0.02 0.04 0.05 0.04 0.04 0.04 0.05 0.05 0.04 0.04 0.04 0.05 0.06 0.05 0.04 0.05
0.00 0.00 0.00 0.00 0.00 0.00 0.00 0.00 0.01 0.00 0.00 0.00 0.00 0.00 0.01 0.01 0.01 0.01 0.01 0.02 0.03 0.01 0.01 0.01 0.02 0.02 0.02 0.02 0.01 0.02 0.02 0.02 0.02 0.03 0.04 0.04 0.03 0.04 0.04 0.04 0.05 0.05 0.05 0.06 0.05 0.05 0.04 0.03 0.03
0.00 0.00 0.00 0.00 0.00 0.00 0.00 0.00 0.00 0.00 0.00 0.00 0.00 0.00 0.00 0.01 0.02 0.01 0.02 0.02 0.03 0.02 0.02 0.02 0.03 0.02 0.02 0.02 0.02 0.01 0.02 0.02 0.02 0.03 0.03 0.04 0.03 0.04 0.04 0.03 0.04 0.04 0.04 0.04 0.04 0.03 0.03 0.02 0.02
0.00 0.00 0.01 0.01 0.00 0.00 0.00 0.00 0.00 0.00 0.00 0.00 0.00 0.00 0.00 0.01 0.01 0.01 0.02 0.03 0.05 0.06 0.04 0.05 0.07 0.05 0.04 0.04 0.02 0.01 0.02 0.02 0.02 0.02 0.03 0.03 0.03 0.03 0.03 0.03 0.03 0.03 0.03 0.03 0.03 0.03 0.02 0.02 0.02
0.00 0.00 0.00 0.00 0.00 0.00 0.00 0.00 0.00 0.00 0.00 0.00 0.00 0.01 0.01 0.01 0.01 0.02 0.02 0.02 0.04 0.05 0.05 0.05 0.12 0.10 0.08 0.10 0.07 0.04 0.03 0.03 0.02 0.02 0.02 0.02 0.02 0.02 0.03 0.02 0.02 0.03 0.04 0.04 0.04 0.03 0.02 0.02 0.03
0.00 0.00 0.00 0.00 0.00 0.00 0.00 0.00 0.00 0.00 0.00 0.00 0.01 0.01 0.02 0.02 0.02 0.02 0.02 0.02 0.01 0.01 0.03 0.05 0.08 0.09 0.07 0.09 0.08 0.04 0.04 0.03 0.02 0.02 0.01 0.01 0.01 0.02 0.03 0.02 0.03 0.04 0.04 0.04 0.04 0.03 0.02 0.03 0.04
0.00 0.00 0.00 0.00 0.00 0.00 0.00 0.00 0.00 0.00 0.00 0.00 0.00 0.01 0.02 0.02 0.03 0.02 0.02 0.02 0.01 0.01 0.02 0.03 0.04 0.05 0.04 0.04 0.05 0.04 0.03 0.02 0.02 0.01 0.01 0.01 0.01 0.02 0.02 0.02 0.02 0.03 0.03 0.03 0.03 0.02 0.03 0.03 0.04
0.00 0.00 0.00 0.00 0.00 0.00 0.00 0.00 0.00 0.00 0.00 0.00 0.00 0.00 0.01 0.03 0.03 0.04 0.04 0.03 0.02 0.01 0.01 0.02 0.02 0.03 0.04 0.03 0.04 0.04 0.03 0.02 0.01 0.01 0.00 0.00 0.01 0.01 0.01 0.01 0.01 0.01 0.02 0.03 0.02 0.02 0.02 0.02 0.02
MSLP
1007.14 1007.87 1008.90 1010.09 1011.29 1012.35 1013.17 1013.70 1013.97 1014.07 1014.10 1014.14 1014.24 1014.40 1014.57 1014.66 1014.61 1014.37 1013.95 1013.41 1012.85 1012.36 1012.04 1011.91 1011.94 1012.06 1012.15 1012.13 1011.92 1011.51 1010.92 1010.24 1009.56 1008.97 1008.53 1008.25 1008.11 1008.07 1008.07 1008.06 1008.03 1007.99 1007.96 1008.00 1008.12 1008.35 1008.68 1009.08 1009.52
1007.78 1008.77 1010.00 1011.33 1012.57 1013.59 1014.27 1014.61 1014.64 1014.49 1014.27 1014.10 1014.05 1014.11 1014.23 1014.33 1014.32 1014.14 1013.79 1013.31 1012.79 1012.33 1012.01 1011.87 1011.90 1012.04 1012.17 1012.22 1012.12 1011.82 1011.37 1010.82 1010.26 1009.75 1009.36 1009.09 1008.93 1008.84 1008.77 1008.70 1008.62 1008.55 1008.53 1008.59 1008.75 1009.03 1009.39 1009.82 1010.24
1008.51 1009.71 1011.11 1012.51 1013.75 1014.68 1015.20 1015.34 1015.14 1014.76 1014.33 1013.99 1013.81 1013.79 1013.88 1013.99 1014.02 1013.90 1013.61 1013.18 1012.71 1012.27 1011.96 1011.81 1011.83 1011.95 1012.11 1012.21 1012.19 1012.01 1011.70 1011.30 1010.88 1010.49 1010.18 1009.95 1009.79 1009.67 1009.56 1009.44 1009.33 1009.24 1009.22 1009.30 1009.49 1009.79 1010.17 1010.57 1010.95
1009.24 1010.60 1012.08 1013.50 1014.68 1015.49 1015.87 1015.82 1015.45 1014.90 1014.34 1013.88 1013.62 1013.56 1013.62 1013.74 1013.79 1013.70 1013.46 1013.08 1012.64 1012.22 1011.90 1011.74 1011.73 1011.84 1011.99 1012.11 1012.14 1012.06 1011.88 1011.62 1011.33 1011.07 1010.86 1010.70 1010.57 1010.45 1010.33 1010.20 1010.07 1009.98 1009.98 1010.07 1010.27 1010.57 1010.92 1011.27 1011.55
1009.89 1011.32 1012.82 1014.19 1015.28 1015.96 1016.21 1016.04 1015.57 1014.94 1014.33 1013.85 1013.57 1013.49 1013.55 1013.66 1013.71 1013.64 1013.41 1013.05 1012.62 1012.21 1011.89 1011.70 1011.66 1011.73 1011.85 1011.96 1012.01 1011.98 1011.88 1011.73 1011.56 1011.42 1011.30 1011.22 1011.15 1011.06 1010.96 1010.84 1010.73 1010.66 1010.66 1010.77 1010.97 1011.24 1011.54 1011.79 1011.98
1010.43 1011.85 1013.28 1014.55 1015.52 1016.09 1016.24 1016.01 1015.53 1014.93 1014.36 1013.92 1013.69 1013.63 1013.69 1013.79 1013.82 1013.72 1013.48 1013.11 1012.68 1012.27 1011.94 1011.73 1011.66 1011.68 1011.75 1011.82 1011.85 1011.83 1011.76 1011.66 1011.58 1011.52 1011.49 1011.47 1011.46 1011.42 1011.36 1011.27 1011.19 1011.14 1011.17 1011.28 1011.46 1011.69 1011.92 1012.09 1012.16
1010.86 1012.19 1013.49 1014.62 1015.44 1015.91 1016.01 1015.80 1015.38 1014.89 1014.45 1014.13 1013.98 1013.97 1014.04 1014.11 1014.10 1013.95 1013.66 1013.27 1012.83 1012.41 1012.08 1011.85 1011.74 1011.71 1011.73 1011.74 1011.72 1011.66 1011.58 1011.50 1011.44 1011.42 1011.44 1011.48 1011.51 1011.52 1011.50 1011.45 1011.40 1011.38 1011.42 1011.53 1011.69 1011.88 1012.03 1012.12 1012.10
1011.21 1012.40 1013.53 1014.48 1015.17 1015.55 1015.64 1015.49 1015.19 1014.86 1014.59 1014.43 1014.40 1014.45 1014.53 1014.56 1014.48 1014.27 1013.92 1013.49 1013.03 1012.62 1012.28 1012.05 1011.92 1011.86 1011.82 1011.76 1011.67 1011.56 1011.43 1011.32 1011.25 1011.24 1011.27 1011.33 1011.39 1011.43 1011.44 1011.42 1011.39 1011.39 1011.44 1011.54 1011.67 1011.81 1011.91 1011.93 1011.85
1011.51 1012.53 1013.48 1014.26 1014.81 1015.13 1015.23 1015.16 1015.01 1014.86 1014.77 1014.77 1014.85 1014.96 1015.04 1015.03 1014.89 1014.60 1014.20 1013.74 1013.27 1012.86 1012.54 1012.33 1012.19 1012.10 1012.02 1011.90 1011.75 1011.57 1011.38 1011.22 1011.11 1011.08 1011.10 1011.15 1011.21 1011.26 1011.27 1011.26 1011.24 1011.25 1011.28 1011.36 1011.47 1011.57 1011.63 1011.61 1011.50
1011.81 1012.67 1013.44 1014.06 1014.50 1014.75 1014.86 1014.88 1014.86 1014.88 1014.95 1015.09 1015.26 1015.41 1015.48 1015.43 1015.23 1014.89 1014.45 1013.97 1013.51 1013.12 1012.84 1012.65 1012.52 1012.43 1012.31 1012.15 1011.94 1011.69 1011.45 1011.24 1011.09 1011.01 1011.00 1011.03 1011.07 1011.10 1011.11 1011.08 1011.05 1011.04 1011.06 1011.11 1011.19 1011.26 1011.29 1011.25 1011.14
1012.14 1012.87 1013.49 1013.97 1014.30 1014.51 1014.62 1014.69 1014.78 1014.91 1015.10 1015.32 1015.55 1015.72 1015.78 1015.69 1015.45 1015.08 1014.62 1014.15 1013.72 1013.38 1013.13 1012.98 1012.87 1012.78 1012.65 1012.46 1012.20 1011.92 1011.63 1011.37 1011.18 1011.07 1011.03 1011.02 1011.04 1011.04 1011.01 1010.96 1010.90 1010.86 1010.84 1010.87 1010.91 1010.96 1010.98 1010.94 1010.85
1012.52 1013.15 1013.66 1014.04 1014.29 1014.44 1014.54 1014.63 1014.76 1014.94 1015.18 1015.44 1015.68 1015.84 1015.88 1015.77 1015.51 1015.14 1014.71 1014.27 1013.89 1013.60 1013.40 1013.29 1013.20 1013.11 1012.97 1012.76 1012.49 1012.17 1011.86 1011.58 1011.37 1011.23 1011.15 1011.12 1011.10 1011.06 1011.00 1010.91 1010.81 1010.73 1010.68 1010.67 1010.69 1010.72 1010.74 1010.71 1010.63
1012.96 1013.53 1013.97 1014.27 1014.45 1014.55 1014.61 1014.68 1014.80 1014.97 1015.19 1015.43 1015.65 1015.78 1015.80 1015.68 1015.44 1015.10 1014.71 1014.34 1014.03 1013.79 1013.65 1013.55 1013.48 1013.39 1013.23 1013.01 1012.72 1012.40 1012.08 1011.79 1011.57 1011.41 1011.32 1011.26 1011.20 1011.13 1011.03 1010.91 1010.77 1010.66 1010.58 1010.54 1010.54 1010.56 1010.57 1010.55 1010.49
1013.45 1013.99 1014.38 1014.63 1014.76 1014.80 1014.81 1014.83 1014.89 1015.00 1015.15 1015.32 1015.48 1015.57 1015.57 1015.46 1015.26 1014.98 1014.67 1014.38 1014.13 1013.96 1013.84 1013.76 1013.69 1013.57 1013.40 1013.16 1012.87 1012.54 1012.22 1011.94 1011.72 1011.56 1011.45 1011.37 1011.29 1011.19 1011.05 1010.90 1010.74 1010.60 1010.49 1010.43 1010.42 1010.43 1010.44 1010.43 1010.38
1013.96 1014.48 1014.84 1015.05 1015.14 1015.14 1015.09 1015.04 1015.01 1015.02 1015.08 1015.16 1015.24 1015.28 1015.26 1015.18 1015.03 1014.83 1014.61 1014.40 1014.22 1014.09 1013.99 1013.91 1013.81 1013.67 1013.48 1013.22 1012.91 1012.59 1012.28 1012.00 1011.79 1011.62 1011.50 1011.40 1011.29 1011.17 1011.01 1010.84 1010.66 1010.51 1010.39 1010.32 1010.30 1010.31 1010.32 1010.30 1010.25
1014.45 1014.95 1015.29 1015.48 1015.54 1015.50 1015.40 1015.27 1015.16 1015.06 1015.01 1014.99 1014.98 1014.97 1014.95 1014.89 1014.80 1014.68 1014.54 1014.41 1014.30 1014.19 1014.10 1014.00 1013.87 1013.70 1013.47 1013.20 1012.89 1012.57 1012.27 1012.00 1011.78 1011.61 1011.47 1011.35 1011.22 1011.07 1010.90 1010.71 1010.53 1010.38 1010.26 1010.20 1010.18 1010.18 1010.18 1010.16 1010.09
1014.89 1015.35 1015.66 1015.83 1015.88 1015.82 1015.69 1015.51 1015.31 1015.13 1014.97 1014.85 1014.76 1014.71 1014.67 1014.63 1014.60 1014.55 1014.49 1014.42 1014.35 1014.26 1014.16 1014.04 1013.88 1013.68 1013.43 1013.15 1012.84 1012.53 1012.24 1011.98 1011.76 1011.57 1011.41 1011.25 1011.10 1010.93 1010.75 1010.56 1010.39 1010.24 1010.14 1010.08 1010.05 1010.05 1010.04 1009.99 1009.90
1015.21 1015.61 1015.90 1016.07 1016.13 1016.08 1015.94 1015.73 1015.48 1015.22 1014.98 1014.77 1014.61 1014.51 1014.45 1014.43 1014.43 1014.43 1014.43 1014.40 1014.36 1014.28 1014.18 1014.04 1013.86 1013.64 1013.39 1013.12 1012.83 1012.55 1012.27 1012.02 1011.79 1011.58 1011.38 1011.20 1011.01 1010.82 1010.63 1010.44 1010.28 1010.15 1010.06 1010.01 1009.98 1009.96 1009.93 1009.85 1009.72
1015.38 1015.73 1016.00 1016.19 1016.28 1016.27 1016.15 1015.95 1015.67 1015.36 1015.05 1014.77 1014.54 1014.39 1014.30 1014.28 1014.29 1014.32 1014.35 1014.35 1014.32 1014.25 1014.14 1013.99 1013.82 1013.61 1013.39 1013.15 1012.91 1012.66 1012.41 1012.17 1011.94 1011.70 1011.48 1011.25 1011.03 1010.82 1010.61 1010.43 1010.28 1010.17 1010.09 1010.03 1009.99 1009.95 1009.88 1009.77 1009.59
1015.39 1015.70 1015.98 1016.20 1016.35 1016.41 1016.34 1016.17 1015.89 1015.55 1015.18 1014.84 1014.55 1014.33 1014.21 1014.16 1014.17 1014.20 1014.24 1014.25 1014.22 1014.16 1014.06 1013.92 1013.76 1013.60 1013.43 1013.25 1013.07 1012.88 1012.68 1012.46 1012.23 1011.98 1011.72 1011.46 1011.21 1010.97 1010.75 1010.57 1010.43 1010.32 1010.24 1010.18 1010.12 1010.05 1009.93 1009.77 1009.55
1015.25 1015.55 1015.86 1016.16 1016.40 1016.53 1016.54 1016.41 1016.15 1015.78 1015.37 1014.96 1014.60 1014.32 1014.14 1014.05 1014.03 1014.05 1014.08 1014.10 1014.07 1014.02 1013.93 1013.82 1013.71 1013.61 1013.51 1013.42 1013.32 1013.20 1013.06 1012.88 1012.65 1012.39 1012.11 1011.82 1011.54 1011.28 1011.05 1010.87 1010.72 1010.61 1010.52 1010.44 1010.35 1010.23 1010.07 1009.85 1009.58
1015.01 1015.34 1015.73 1016.12 1016.46 1016.69 1016.78 1016.69 1016.44 1016.05 1015.59 1015.11 1014.68 1014.33 1014.08 1013.94 1013.89 1013.89 1013.91 1013.91 1013.90 1013.85 1013.79 1013.72 1013.67 1013.63 1013.62 1013.61 1013.60 1013.57 1013.49 1013.35 1013.14 1012.89 1012.59 1012.28 1011.97 1011.69 1011.45 1011.26 1011.11 1010.98 1010.88 1010.76 1010.63 1010.46 1010.24 1009.97 1009.66
1014.74 1015.15 1015.62 1016.12 1016.57 1016.90 1017.05 1017.00 1016.74 1016.32 1015.80 1015.26 1014.75 1014.32 1014.02 1013.83 1013.74 1013.72 1013.73 1013.73 1013.73 1013.70 1013.66 1013.64 1013.64 1013.67 1013.73 1013.81 1013.88 1013.92 1013.90 1013.80 1013.62 1013.37 1013.07 1012.74 1012.42 1012.13 1011.88 1011.67 1011.50 1011.36 1011.22 1011.07 1010.89 1010.67 1010.40 1010.09 1009.73
1014.51 1015.00 1015.59 1016.20 1016.74 1017.14 1017.33 1017.29 1017.02 1016.55 1015.97 1015.36 1014.78 1014.29 1013.94 1013.71 1013.60 1013.57 1013.58 1013.60 1013.60 1013.60 1013.59 1013.60 1013.64 1013.73 1013.85 1013.99 1014.12 1014.21 1014.23 1014.17 1014.01 1013.77 1013.47 1013.14 1012.81 1012.51 1012.24 1012.02 1011.84 1011.67 1011.50 1011.31 1011.09 1010.82 1010.50 1010.15 1009.77
1014.34 1014.94 1015.62 1016.31 1016.92 1017.36 1017.57 1017.51 1017.20 1016.69 1016.05 1015.37 1014.74 1014.21 1013.83 1013.59 1013.48 1013.46 1013.49 1013.53 1013.56 1013.57 1013.59 1013.63 1013.69 1013.81 1013.96 1014.13 1014.30 1014.42 1014.47 1014.43 1014.29 1014.06 1013.76 1013.43 1013.10 1012.79 1012.51 1012.28 1012.08 1011.89 1011.69 1011.46 1011.19 1010.89 1010.54 1010.16 1009.76
1014.24 1014.92 1015.67 1016.42 1017.06 1017.50 1017.68 1017.59 1017.23 1016.66 1015.97 1015.26 1014.60 1014.07 1013.69 1013.47 1013.39 1013.41 1013.47 1013.54 1013.60 1013.64 1013.68 1013.73 1013.81 1013.93 1014.08 1014.26 1014.43 1014.56 1014.62 1014.58 1014.45 1014.23 1013.94 1013.61 1013.28 1012.97 1012.69 1012.44 1012.22 1012.01 1011.79 1011.53 1011.24 1010.90 1010.53 1010.13 1009.73
1014.17 1014.90 1015.68 1016.43 1017.05 1017.45 1017.59 1017.44 1017.04 1016.43 1015.72 1015.00 1014.36 1013.85 1013.52 1013.35 1013.32 1013.40 1013.51 1013.63 1013.73 1013.80 1013.85 1013.91 1013.98 1014.09 1014.23 1014.39 1014.54 1014.66 1014.71 1014.67 1014.54 1014.32 1014.04 1013.72 1013.39 1013.09 1012.81 1012.56 1012.33 1012.10 1011.86 1011.59 1011.27 1010.91 1010.53 1010.13 1009.72
1014.10 1014.82 1015.57 1016.27 1016.82 1017.16 1017.23 1017.03 1016.59 1015.97 1015.27 1014.58 1013.99 1013.55 1013.30 1013.21 1013.27 1013.41 1013.60 1013.77 1013.91 1014.01 1014.09 1014.14 1014.21 1014.30 1014.41 1014.54 1014.67 1014.76 1014.79 1014.75 1014.61 1014.40 1014.13 1013.82 1013.51 1013.21 1012.94 1012.69 1012.46 1012.23 1011.97 1011.68 1011.36 1010.99 1010.59 1010.19 1009.78
1013.96 1014.62 1015.29 1015.89 1016.35 1016.59 1016.59 1016.34 1015.88 1015.28 1014.63 1014.02 1013.52 1013.19 1013.03 1013.05 1013.20 1013.43 1013.68 1013.92 1014.11 1014.25 1014.34 1014.40 1014.46 1014.54 1014.63 1014.74 1014.83 1014.90 1014.92 1014.86 1014.72 1014.51 1014.26 1013.97 1013.68 1013.40 1013.14 1012.90 1012.67 1012.43 1012.17 1011.87 1011.54 1011.16 1010.76 1010.35 1009.94
1013.75 1014.30 1014.84 1015.31 1015.64 1015.79 1015.71 1015.43 1014.98 1014.43 1013.86 1013.36 1012.98 1012.77 1012.73 1012.86 1013.10 1013.42 1013.74 1014.04 1014.27 1014.45 1014.57 1014.65 1014.72 1014.79 1014.87 1014.96 1015.04 1015.09 1015.09 1015.02 1014.89 1014.69 1014.45 1014.19 1013.92 1013.66 1013.42 1013.19 1012.97 1012.73 1012.46 1012.16 1011.81 1011.43 1011.01 1010.58 1010.16
Thickness
5814 5818 5818 5812 5805 5795 5782 5787 5794 5791 5791 5796 5797 5794 5786 5781 5775 5765 5784 5793 5793 5793 5792 5790 5789 5790 5790 5790 5789 5789 5789 5789 5788 5787 5787 5786 5786 5785 5783 5782 5780 5779 5778 5776 5775 5773 5772 5771 5770
5822 5822 5817 5812 5799 5781 5776 5790 5789 5791 5795 5798 5796 5793 5788 5781 5786 5784 5788 5791 5793 5793 5793 5791 5788 5789 5788 5788 5788 5788 5788 5787 5787 5786 5785 5785 5785 5784 5783 5781 5779 5778 5777 5775 5774 5772 5771 5770 5768
5825 5824 5816 5810 5793 5782 5779 5790 5791 5796 5800 5797 5792 5792 5787 5779 5784 5787 5790 5792 5794 5793 5792 5789 5787 5787 5787 5787 5787 5786 5786 5786 5786 5785 5784 5784 5784 5783 5781 5780 5778 5777 5776 5774 5772 5771 5769 5768 5767
5826 5822 5819 5805 5788 5792 5794 5795 5798 5796 5796 5798 5794 5786 5786 5787 5789 5790 5792 5793 5794 5793 5792 5788 5785 5785 5785 5785 5785 5785 5785 5785 5784 5784 5783 5782 5782 5781 5779 5778 5777 5776 5774 5773 5771 5770 5768 5768 5767
5828 5821 5808 5796 5792 5797 5803 5803 5803 5796 5792 5795 5794 5782 5779 5787 5793 5793 5793 5793 5792 5792 5791 5788 5784 5784 5783 5783 5783 5783 5783 5783 5783 5782 5782 5781 5780 5779 5777 5776 5775 5774 5773 5772 5770 5769 5768 5768 5767
5825 5822 5802 5790 5790 5798 5803 5806 5804 5797 5794 5795 5793 5784 5779 5789 5791 5792 5793 5792 5793 5792 5791 5788 5783 5783 5782 5782 5781 5781 5781 5781 5781 5781 5780 5780 5779 5777 5776 5775 5774 5773 5772 5771 5769 5768 5767 5766 5765
5821 5816 5801 5798 5794 5795 5800 5809 5803 5798 5792 5794 5798 5786 5781 5786 5791 5793 5792 5792 5792 5791 5790 5788 5787 5783 5781 5780 5779 5779 5779 5779 5779 5779 5779 5779 5778 5776 5775 5773 5772 5771 5771 5770 5768 5767 5766 5765 5764
5831 5821 5807 5803 5798 5795 5806 5808 5806 5801 5795 5802 5802 5786 5780 5786 5793 5793 5792 5791 5790 5790 5789 5788 5786 5785 5784 5782 5778 5778 5777 5777 5777 5776 5777 5777 5777 5775 5774 5773 5771 5770 5769 5768 5768 5766 5765 5764 5762
5834 5817 5803 5804 5804 5802 5809 5805 5805 5810 5802 5799 5801 5797 5794 5794 5794 5791 5789 5788 5786 5786 5787 5787 5787 5785 5784 5782 5779 5778 5776 5775 5775 5775 5774 5776 5778 5777 5775 5772 5770 5769 5768 5767 5767 5766 5764 5764 5763
5829 5811 5807 5816 5818 5813 5810 5807 5806 5804 5796 5794 5794 5796 5797 5795 5792 5787 5785 5784 5783 5783 5785 5786 5784 5784 5784 5782 5779 5779 5778 5775 5775 5774 5775 5775 5774 5774 5773 5769 5769 5768 5766 5766 5765 5765 5764 5764 5766
5828 5816 5818 5822 5825 5821 5813 5810 5813 5805 5794 5795 5792 5792 5793 5792 5789 5786 5785 5784 5782 5783 5784 5784 5783 5781 5782 5781 5779 5778 5776 5774 5774 5773 5773 5772 5773 5773 5772 5771 5769 5767 5767 5767 5766 5767 5766 5766 5765
5825 5823 5825 5825 5827 5822 5816 5813 5810 5807 5803 5808 5805 5800 5795 5791 5789 5787 5784 5783 5783 5782 5782 5783 5783 5780 5778 5779 5778 5777 5776 5774 5774 5771 5771 5771 5771 5771 5770 5770 5769 5768 5767 5765 5766 5765 5765 5764 5764
5824 5823 5827 5828 5827 5825 5820 5814 5810 5806 5810 5811 5806 5800 5795 5793 5791 5790 5788 5786 5784 5781 5781 5781 5780 5778 5777 5776 5776 5776 5775 5774 5772 5770 5769 5769 5770 5769 5768 5766 5766 5767 5767 5766 5765 5765 5764 5763 5764
5828 5827 5827 5828 5826 5823 5816 5813 5810 5806 5811 5807 5802 5798 5796 5794 5792 5790 5787 5785 5784 5783 5782 5781 5779 5777 5775 5774 5774 5774 5774 5771 5771 5770 5768 5767 5768 5767 5766 5766 5765 5765 5765 5765 5764 5764 5763 5764 5763
5834 5825 5824 5825 5825 5823 5820 5806 5807 5812 5812 5804 5801 5798 5796 5795 5793 5790 5788 5786 5786 5785 5783 5780 5779 5777 5775 5774 5773 5774 5773 5772 5771 5769 5767 5766 5767 5765 5765 5765 5765 5764 5764 5763 5763 5763 5763 5763 5763
5831 5823 5814 5821 5825 5824 5816 5800 5810 5817 5811 5803 5801 5799 5797 5795 5795 5794 5792 5789 5788 5786 5782 5781 5781 5777 5774 5773 5772 5773 5773 5771 5770 5769 5768 5766 5765 5765 5764 5765 5764 5763 5763 5763 5763 5763 5762 5762 5761
5821 5814 5813 5817 5826 5824 5817 5807 5812 5818 5813 5805 5802 5801 5799 5797 5796 5796 5796 5793 5790 5787 5783 5780 5779 5777 5775 5773 5772 5772 5770 5770 5770 5769 5768 5766 5765 5765 5765 5764 5763 5763 5763 5763 5763 5763 5762 5760 5759
5812 5815 5815 5815 5823 5821 5816 5814 5816 5818 5815 5810 5807 5804 5802 5800 5799 5800 5798 5796 5793 5789 5785 5781 5779 5777 5776 5775 5773 5772 5771 5771 5770 5769 5767 5766 5765 5764 5764 5764 5762 5763 5762 5761 5760 5759 5759 5759 5759
5823 5818 5814 5817 5826 5819 5814 5814 5818 5819 5815 5813 5811 5808 5805 5804 5806 5804 5801 5798 5793 5789 5785 5782 5779 5777 5775 5774 5773 5771 5770 5771 5770 5770 5767 5766 5765 5765 5764 5764 5762 5762 5761 5759 5760 5759 5758 5757 5757
5819 5813 5814 5817 5823 5818 5814 5815 5822 5821 5817 5818 5815 5812 5811 5808 5806 5803 5801 5798 5795 5790 5786 5783 5780 5779 5777 5775 5773 5772 5771 5772 5772 5770 5767 5766 5765 5765 5765 5762 5763 5762 5760 5758 5758 5757 5756 5756 5756
5816 5814 5814 5811 5816 5820 5814 5811 5816 5821 5822 5822 5821 5820 5818 5813 5809 5805 5802 5799 5797 5792 5788 5787 5783 5781 5778 5777 5775 5773 5771 5771 5771 5769 5768 5766 5765 5764 5763 5762 5762 5761 5762 5760 5758 5757 5754 5753 5755
5809 5822 5819 5814 5809 5809 5811 5798 5813 5820 5817 5818 5820 5821 5820 5818 5815 5811 5806 5802 5799 5797 5794 5789 5785 5782 5780 5777 5776 5774 5771 5769 5769 5769 5768 5766 5765 5764 5764 5762 5761 5760 5761 5758 5759 5758 5756 5753 5752
5817 5824 5820 5816 5811 5810 5812 5804 5811 5821 5815 5818 5822 5823 5823 5822 5819 5814 5811 5807 5804 5801 5797 5793 5788 5784 5781 5779 5776 5773 5773 5772 5772 5770 5767 5765 5766 5764 5763 5762 5760 5759 5760 5758 5756 5755 5754 5754 5752
5822 5817 5814 5815 5815 5795 5804 5801 5801 5819 5818 5823 5826 5826 5825 5825 5822 5818 5815 5811 5807 5804 5801 5797 5790 5785 5783 5780 5778 5775 5773 5771 5770 5768 5766 5766 5767 5765 5763 5762 5760 5759 5759 5757 5755 5754 5753 5751 5749
5817 5805 5793 5790 5792 5792 5810 5803 5804 5823 5828 5827 5825 5826 5828 5826 5823 5819 5815 5810 5807 5804 5801 5798 5792 5786 5784 5781 5779 5777 5774 5772 5769 5769 5767 5766 5767 5765 5762 5762 5759 5758 5757 5756 5755 5752 5751 5749 5747
5812 5810 5789 5779 5785 5798 5804 5798 5813 5829 5831 5831 5830 5829 5828 5826 5824 5820 5817 5813 5809 5806 5802 5798 5793 5788 5785 5782 5780 5778 5776 5775 5774 5771 5770 5768 5767 5766 5763 5760 5758 5757 5755 5755 5752 5752 5749 5747 5745
5807 5808 5817 5804 5799 5793 5801 5806 5815 5826 5825 5827 5827 5826 5825 5825 5823 5821 5819 5815 5811 5808 5803 5800 5794 5789 5785 5782 5780 5778 5776 5775 5774 5771 5769 5769 5766 5765 5761 5759 5758 5756 5753 5752 5750 5748 5745 5744 5743
5818 5816 5806 5797 5778 5777 5790 5796 5801 5809 5814 5820 5822 5822 5823 5823 5822 5820 5818 5815 5812 5809 5805 5802 5796 5790 5786 5783 5781 5779 5776 5775 5773 5771 5768 5766 5764 5762 5759 5758 5756 5754 5751 5749 5747 5746 5743 5740 5739
5803 5804 5802 5801 5795 5784 5778 5793 5817 5813 5815 5816 5819 5821 5820 5820 5820 5818 5816 5814 5811 5808 5805 5800 5795 5790 5786 5784 5781 5779 5777 5775 5772 5769 5767 5765 5763 5760 5757 5756 5753 5751 5748 5746 5744 5743 5740 5737 5735
5809 5805 5802 5788 5783 5788 5788 5793 5821 5818 5819 5819 5818 5818 5819 5818 5818 5817 5814 5810 5807 5804 5802 5798 5795 5791 5787 5784 5781 5778 5776 5774 5772 5769 5767 5764 5762 5760 5757 5754 5751 5749 5746 5744 5741 5738 5737 5734 5732